Time,TemperatureF,DewpointF,PressureIn,WindDirection,WindDirectionDegrees,WindSpeedMPH,WindSpeedGustMPH,Humidity,HourlyPrecipIn,Conditions,Clouds,dailyrainin,SoftwareType,DateUTC
2013-01-24 00:01:00,49.2,32.3,30.29,WSW,251,0.0,0.0,52,0.00,CLR,SCT,0.00,WeatherDisplay:10.37,2013-01-24 07:01:00,
2013-01-24 00:06:00,49.3,31.9,30.29,WSW,251,0.1,1.2,51,0.00,CLR,SCT,0.00,WeatherDisplay:10.37,2013-01-24 07:06:00,
2013-01-24 00:11:00,49.1,32.2,30.29,WSW,251,0.0,0.0,52,0.00,CLR,SCT,0.00,WeatherDisplay:10.37,2013-01-24 07:11:00,
2013-01-24 00:16:00,49.1,32.2,30.29,WSW,251,0.0,0.0,52,0.00,CLR,SCT,0.00,WeatherDisplay:10.37,2013-01-24 07:16:00,
2013-01-24 00:21:00,49.0,32.6,30.29,WSW,251,0.0,0.0,53,0.00,CLR,SCT,0.00,WeatherDisplay:10.37,2013-01-24 07:21:00,
2013-01-24 00:26:00,49.4,33.0,30.30,WSW,251,0.0,0.0,53,0.00,CLR,SCT,0.00,WeatherDisplay:10.37,2013-01-24 07:26:00,
2013-01-24 00:31:00,49.9,33.0,30.30,WSW,251,0.0,0.0,52,0.00,CLR,SCT,0.00,WeatherDisplay:10.37,2013-01-24 07:31:00,
2013-01-24 00:36:00,50.0,32.6,30.30,WSW,251,0.0,0.0,51,0.00,CLR,SCT,0.00,WeatherDisplay:10.37,2013-01-24 07:36:00,
2013-01-24 00:41:00,49.9,32.5,30.30,WSW,251,0.0,0.0,51,0.00,CLR,SCT,0.00,WeatherDisplay:10.37,2013-01-24 07:41:00,
2013-01-24 00:46:00,49.6,32.7,30.30,WSW,251,0.0,0.0,52,0.00,CLR,SCT,0.00,WeatherDisplay:10.37,2013-01-24 07:46:00,
2013-01-24 00:51:00,49.3,32.4,30.30,WSW,251,0.0,0.0,52,0.00,CLR,SCT,0.00,WeatherDisplay:10.37,2013-01-24 07:51:00,
2013-01-24 00:56:00,49.2,32.3,30.30,WSW,251,0.0,0.0,52,0.00,CLR,SCT,0.00,WeatherDisplay:10.37,2013-01-24 07:56:00,
2013-01-24 01:01:00,49.1,32.7,30.30,WSW,251,0.0,0.0,53,0.00,CLR,SCT,0.00,WeatherDisplay:10.37,2013-01-24 08:01:00,
2013-01-24 01:06:00,49.1,32.7,30.30,WSW,251,0.0,0.0,53,0.00,CLR,SCT,0.00,WeatherDisplay:10.37,2013-01-24 08:06:00,
2013-01-24 01:11:00,49.0,32.6,30.30,WSW,251,0.0,0.0,53,0.00,CLR,SCT,0.00,WeatherDisplay:10.37,2013-01-24 08:11:00,
2013-01-24 01:16:00,48.8,33.3,30.30,WSW,251,0.0,1.2,55,0.00,CLR,SCT,0.00,WeatherDisplay:10.37,2013-01-24 08:16:00,
2013-01-24 01:21:00,49.0,33.5,30.30,WSW,251,0.0,0.0,55,0.00,CLR,SCT,0.00,WeatherDisplay:10.37,2013-01-24 08:21:00,
2013-01-24 01:26:00,49.4,33.9,30.30,WSW,251,0.0,0.0,55,0.00,CLR,SCT,0.00,WeatherDisplay:10.37,2013-01-24 08:26:00,
2013-01-24 01:31:00,49.5,34.0,30.30,WSW,251,0.1,1.2,55,0.00,CLR,SCT,0.00,WeatherDisplay:10.37,2013-01-24 08:31:00,
2013-01-24 01:36:00,49.7,34.2,30.30,WSW,251,0.0,0.0,55,0.00,CLR,SCT,0.00,WeatherDisplay:10.37,2013-01-24 08:36:00,
2013-01-24 01:41:00,50.0,34.0,30.30,WSW,251,0.0,0.0,54,0.00,CLR,SCT,0.00,WeatherDisplay:10.37,2013-01-24 08:41:00,
2013-01-24 01:46:00,50.4,34.4,30.30,West,265,0.0,0.0,54,0.00,CLR,SCT,0.00,WeatherDisplay:10.37,2013-01-24 08:46:00,
2013-01-24 01:51:00,50.5,34.5,30.30,West,265,0.0,0.0,54,0.00,CLR,SCT,0.00,WeatherDisplay:10.37,2013-01-24 08:51:00,
2013-01-24 01:56:00,50.5,34.5,30.30,West,265,0.0,0.0,54,0.00,CLR,SCT,0.00,WeatherDisplay:10.37,2013-01-24 08:56:00,
2013-01-24 02:01:00,50.3,34.3,30.30,West,265,0.0,0.0,54,0.00,CLR,SCT,0.00,WeatherDisplay:10.37,2013-01-24 09:01:00,
2013-01-24 02:06:00,50.3,34.3,30.30,West,265,0.0,0.0,54,0.00,CLR,SCT,0.00,WeatherDisplay:10.37,2013-01-24 09:06:00,
2013-01-24 02:11:00,50.4,34.4,30.30,West,265,0.0,0.0,54,0.00,CLR,SCT,0.00,WeatherDisplay:10.37,2013-01-24 09:11:00,
2013-01-24 02:16:00,50.5,34.0,30.30,West,265,0.0,0.0,53,0.00,CLR,SCT,0.00,WeatherDisplay:10.37,2013-01-24 09:16:00,
2013-01-24 02:21:00,50.1,34.5,30.29,West,265,0.0,0.0,55,0.00,CLR,SCT,0.00,WeatherDisplay:10.37,2013-01-24 09:21:00,
2013-01-24 02:26:00,49.7,34.6,30.29,West,265,0.0,0.0,56,0.00,CLR,SCT,0.00,WeatherDisplay:10.37,2013-01-24 09:26:00,
2013-01-24 02:31:00,50.0,34.5,30.30,West,265,0.0,1.2,55,0.00,CLR,SCT,0.00,WeatherDisplay:10.37,2013-01-24 09:31:00,
2013-01-24 02:36:00,50.9,34.8,30.29,West,265,0.0,0.0,54,0.00,CLR,SCT,0.00,WeatherDisplay:10.37,2013-01-24 09:36:00,
2013-01-24 02:41:00,51.8,35.2,30.30,West,265,0.0,0.0,53,0.00,CLR,SCT,0.00,WeatherDisplay:10.37,2013-01-24 09:41:00,
2013-01-24 02:46:00,52.7,35.1,30.30,West,265,0.0,1.2,51,0.00,CLR,SCT,0.00,WeatherDisplay:10.37,2013-01-24 09:46:00,
2013-01-24 02:51:00,53.0,34.8,30.30,West,265,0.0,0.0,50,0.00,CLR,SCT,0.00,WeatherDisplay:10.37,2013-01-24 09:51:00,
2013-01-24 02:56:00,52.8,34.2,30.30,West,265,0.0,0.0,49,0.00,CLR,SCT,0.00,WeatherDisplay:10.37,2013-01-24 09:56:00,
2013-01-24 03:01:00,52.4,33.8,30.30,West,265,0.0,0.0,49,0.00,CLR,SCT,0.00,WeatherDisplay:10.37,2013-01-24 10:01:00,
2013-01-24 03:06:00,51.9,33.3,30.30,West,265,0.0,0.0,49,0.00,CLR,SCT,0.00,WeatherDisplay:10.37,2013-01-24 10:06:00,
2013-01-24 03:11:00,51.4,33.4,30.30,West,265,0.0,0.0,50,0.00,CLR,SCT,0.00,WeatherDisplay:10.37,2013-01-24 10:11:00,
2013-01-24 03:16:00,51.2,33.2,30.30,West,265,0.0,0.0,50,0.00,CLR,SCT,0.00,WeatherDisplay:10.37,2013-01-24 10:16:00,
2013-01-24 03:21:00,51.0,33.5,30.30,West,265,0.0,0.0,51,0.00,CLR,SCT,0.00,WeatherDisplay:10.37,2013-01-24 10:21:00,
2013-01-24 03:26:00,50.6,33.6,30.30,West,265,0.0,0.0,52,0.00,CLR,SCT,0.00,WeatherDisplay:10.37,2013-01-24 10:26:00,
2013-01-24 03:31:00,50.1,33.6,30.30,West,265,0.0,0.0,53,0.00,CLR,SCT,0.00,WeatherDisplay:10.37,2013-01-24 10:31:00,
2013-01-24 03:36:00,50.0,34.0,30.29,West,265,0.0,0.0,54,0.00,CLR,SCT,0.00,WeatherDisplay:10.37,2013-01-24 10:36:00,
2013-01-24 03:41:00,49.8,34.3,30.29,West,265,0.0,0.0,55,0.00,CLR,SCT,0.00,WeatherDisplay:10.37,2013-01-24 10:41:00,
2013-01-24 03:46:00,49.6,34.1,30.30,West,265,0.0,0.0,55,0.00,CLR,SCT,0.00,WeatherDisplay:10.37,2013-01-24 10:46:00,
2013-01-24 03:51:00,49.7,34.2,30.29,West,265,0.0,0.0,55,0.00,CLR,SCT,0.00,WeatherDisplay:10.37,2013-01-24 10:51:00,
2013-01-24 03:56:00,49.9,34.4,30.29,West,265,0.0,1.2,55,0.00,CLR,SCT,0.00,WeatherDisplay:10.37,2013-01-24 10:56:00,
2013-01-24 04:01:00,50.2,34.6,30.29,West,265,0.0,0.0,55,0.00,CLR,SCT,0.00,WeatherDisplay:10.37,2013-01-24 11:01:00,
2013-01-24 04:06:00,50.5,34.9,30.29,West,265,0.1,1.2,55,0.00,CLR,SCT,0.00,WeatherDisplay:10.37,2013-01-24 11:06:00,
2013-01-24 04:11:00,50.6,35.0,30.29,West,265,0.3,1.2,55,0.00,CLR,SCT,0.00,WeatherDisplay:10.37,2013-01-24 11:11:00,
2013-01-24 04:16:00,51.0,35.4,30.29,West,265,0.0,1.2,55,0.00,CLR,SCT,0.00,WeatherDisplay:10.37,2013-01-24 11:16:00,
2013-01-24 04:21:00,51.2,35.1,30.29,West,265,0.0,0.0,54,0.00,CLR,SCT,0.00,WeatherDisplay:10.37,2013-01-24 11:21:00,
2013-01-24 04:26:00,51.3,35.2,30.29,West,265,0.0,0.0,54,0.00,CLR,SCT,0.00,WeatherDisplay:10.37,2013-01-24 11:26:00,
2013-01-24 04:31:00,51.4,35.3,30.28,West,265,0.0,0.0,54,0.00,CLR,SCT,0.00,WeatherDisplay:10.37,2013-01-24 11:31:00,
2013-01-24 04:36:00,51.4,35.3,30.29,West,265,0.0,0.0,54,0.00,CLR,SCT,0.00,WeatherDisplay:10.37,2013-01-24 11:36:00,
2013-01-24 04:41:00,51.3,35.7,30.29,West,265,0.0,0.0,55,0.00,CLR,SCT,0.00,WeatherDisplay:10.37,2013-01-24 11:41:00,
2013-01-24 04:46:00,51.5,35.4,30.29,West,265,0.6,2.3,54,0.00,CLR,SCT,0.00,WeatherDisplay:10.37,2013-01-24 11:46:00,
2013-01-24 04:52:00,52.3,35.7,30.29,West,265,1.0,3.5,53,0.00,CLR,SCT,0.00,WeatherDisplay:10.37,2013-01-24 11:52:00,
2013-01-24 04:57:00,52.4,35.8,30.29,West,265,0.1,0.0,53,0.00,CLR,SCT,0.00,WeatherDisplay:10.37,2013-01-24 11:57:00,
2013-01-24 05:02:00,52.3,35.7,30.28,West,265,0.0,0.0,53,0.00,CLR,SCT,0.00,WeatherDisplay:10.37,2013-01-24 12:02:00,
2013-01-24 05:07:00,52.3,35.7,30.28,West,265,0.1,0.0,53,0.00,CLR,SCT,0.00,WeatherDisplay:10.37,2013-01-24 12:07:00,
2013-01-24 05:12:00,51.9,35.8,30.28,West,265,0.0,1.2,54,0.00,CLR,SCT,0.00,WeatherDisplay:10.37,2013-01-24 12:12:00,
2013-01-24 05:17:00,51.6,35.5,30.28,West,265,0.0,0.0,54,0.00,CLR,SCT,0.00,WeatherDisplay:10.37,2013-01-24 12:17:00,
2013-01-24 05:22:00,51.4,35.8,30.28,West,265,0.0,0.0,55,0.00,CLR,SCT,0.00,WeatherDisplay:10.37,2013-01-24 12:22:00,
2013-01-24 05:27:00,51.0,35.4,30.29,West,265,0.0,0.0,55,0.00,CLR,SCT,0.00,WeatherDisplay:10.37,2013-01-24 12:27:00,
2013-01-24 05:32:00,50.7,35.1,30.29,West,265,0.0,0.0,55,0.00,CLR,SCT,0.00,WeatherDisplay:10.37,2013-01-24 12:32:00,
2013-01-24 05:37:00,50.6,35.5,30.29,West,265,0.0,0.0,56,0.00,CLR,SCT,0.00,WeatherDisplay:10.37,2013-01-24 12:37:00,
2013-01-24 05:42:00,50.3,35.6,30.29,West,265,0.2,3.5,57,0.00,CLR,SCT,0.00,WeatherDisplay:10.37,2013-01-24 12:42:00,
2013-01-24 05:47:00,50.4,35.3,30.28,West,265,0.0,0.0,56,0.00,CLR,SCT,0.00,WeatherDisplay:10.37,2013-01-24 12:47:00,
2013-01-24 05:52:00,50.3,35.6,30.28,West,265,0.0,0.0,57,0.00,CLR,SCT,0.00,WeatherDisplay:10.37,2013-01-24 12:52:00,
2013-01-24 05:57:00,50.3,35.6,30.28,West,265,0.0,0.0,57,0.00,CLR,SCT,0.00,WeatherDisplay:10.37,2013-01-24 12:57:00,
2013-01-24 06:02:00,50.1,35.9,30.28,West,265,0.0,0.0,58,0.00,CLR,SCT,0.00,WeatherDisplay:10.37,2013-01-24 13:02:00,
2013-01-24 06:07:00,49.9,35.7,30.28,West,265,0.0,1.2,58,0.00,CLR,SCT,0.00,WeatherDisplay:10.37,2013-01-24 13:07:00,
2013-01-24 06:12:00,50.8,35.7,30.28,West,265,0.0,0.0,56,0.00,CLR,SCT,0.00,WeatherDisplay:10.37,2013-01-24 13:12:00,
2013-01-24 06:17:00,51.2,36.0,30.28,West,265,0.0,0.0,56,0.00,CLR,SCT,0.00,WeatherDisplay:10.37,2013-01-24 13:17:00,
2013-01-24 06:22:00,51.4,35.8,30.28,West,265,0.0,0.0,55,0.00,CLR,SCT,0.00,WeatherDisplay:10.37,2013-01-24 13:22:00,
2013-01-24 06:27:00,51.7,35.6,30.28,West,265,0.7,2.3,54,0.00,CLR,SCT,0.00,WeatherDisplay:10.37,2013-01-24 13:27:00,
2013-01-24 06:32:00,51.9,35.8,30.28,West,265,0.0,0.0,54,0.00,CLR,SCT,0.00,WeatherDisplay:10.37,2013-01-24 13:32:00,
2013-01-24 06:37:00,52.0,35.9,30.28,West,265,0.0,0.0,54,0.00,CLR,SCT,0.00,WeatherDisplay:10.37,2013-01-24 13:37:00,
2013-01-24 06:42:00,51.9,35.8,30.28,West,265,0.0,0.0,54,0.00,CLR,SCT,0.00,WeatherDisplay:10.37,2013-01-24 13:42:00,
2013-01-24 06:47:00,52.0,35.9,30.28,West,265,0.0,1.2,54,0.00,CLR,SCT,0.00,WeatherDisplay:10.37,2013-01-24 13:47:00,
2013-01-24 06:52:00,52.2,36.0,30.28,West,265,0.0,2.3,54,0.00,CLR,SCT,0.00,WeatherDisplay:10.37,2013-01-24 13:52:00,
2013-01-24 06:57:00,52.5,35.8,30.28,West,265,0.0,3.5,53,0.00,CLR,SCT,0.00,WeatherDisplay:10.37,2013-01-24 13:57:00,
2013-01-24 07:02:00,52.8,36.1,30.28,West,265,0.0,0.0,53,0.00,CLR,SCT,0.00,WeatherDisplay:10.37,2013-01-24 14:02:00,
2013-01-24 07:07:00,52.6,35.9,30.28,West,265,0.0,0.0,53,0.00,CLR,SCT,0.00,WeatherDisplay:10.37,2013-01-24 14:07:00,
2013-01-24 07:12:00,52.4,35.8,30.28,West,265,0.0,0.0,53,0.00,CLR,SCT,0.00,WeatherDisplay:10.37,2013-01-24 14:12:00,
2013-01-24 07:17:00,52.1,35.9,30.28,West,265,0.0,0.0,54,0.00,CLR,SCT,0.00,WeatherDisplay:10.37,2013-01-24 14:17:00,
2013-01-24 07:22:00,51.8,35.7,30.28,West,265,0.0,0.0,54,0.00,CLR,SCT,0.00,WeatherDisplay:10.37,2013-01-24 14:22:00,
2013-01-24 07:27:00,51.7,35.6,30.28,West,265,0.0,0.0,54,0.00,CLR,SCT,0.00,WeatherDisplay:10.37,2013-01-24 14:27:00,
2013-01-24 07:32:00,51.6,35.9,30.29,West,265,0.0,0.0,55,0.00,CLR,SCT,0.00,WeatherDisplay:10.37,2013-01-24 14:32:00,
2013-01-24 07:37:00,51.4,35.8,30.29,West,265,0.0,0.0,55,0.00,CLR,SCT,0.00,WeatherDisplay:10.37,2013-01-24 14:37:00,
2013-01-24 07:42:00,51.3,35.7,30.28,West,265,0.0,0.0,55,0.00,CLR,SCT,0.00,WeatherDisplay:10.37,2013-01-24 14:42:00,
2013-01-24 07:47:00,51.2,36.5,30.29,West,265,0.0,0.0,57,0.00,CLR,SCT,0.00,WeatherDisplay:10.37,2013-01-24 14:47:00,
2013-01-24 07:52:00,51.1,36.4,30.29,West,265,0.0,0.0,57,0.00,CLR,SCT,0.00,WeatherDisplay:10.37,2013-01-24 14:52:00,
2013-01-24 07:57:00,51.2,36.9,30.29,West,265,0.0,0.0,58,0.00,CLR,SCT,0.00,WeatherDisplay:10.37,2013-01-24 14:57:00,
2013-01-24 08:02:00,51.2,36.5,30.29,West,265,0.0,0.0,57,0.00,CLR,SCT,0.00,WeatherDisplay:10.37,2013-01-24 15:02:00,
2013-01-24 08:07:00,51.3,37.0,30.29,West,265,0.0,0.0,58,0.00,CLR,SCT,0.00,WeatherDisplay:10.37,2013-01-24 15:07:00,
2013-01-24 08:12:00,51.4,37.1,30.29,West,265,0.0,0.0,58,0.00,CLR,SCT,0.00,WeatherDisplay:10.37,2013-01-24 15:12:00,
2013-01-24 08:17:00,51.7,36.9,30.29,West,265,0.0,0.0,57,0.00,CLR,SCT,0.00,WeatherDisplay:10.37,2013-01-24 15:17:00,
2013-01-24 08:22:00,51.8,37.0,30.29,West,265,0.0,0.0,57,0.00,CLR,SCT,0.00,WeatherDisplay:10.37,2013-01-24 15:22:00,
2013-01-24 08:27:00,51.9,37.1,30.29,West,265,0.0,0.0,57,0.00,CLR,SCT,0.00,WeatherDisplay:10.37,2013-01-24 15:27:00,
2013-01-24 08:32:00,52.1,37.3,30.29,West,265,0.0,0.0,57,0.00,CLR,SCT,0.00,WeatherDisplay:10.37,2013-01-24 15:32:00,
2013-01-24 08:37:00,52.4,37.2,30.29,West,265,0.1,0.0,56,0.00,CLR,SCT,0.00,WeatherDisplay:10.37,2013-01-24 15:37:00,
2013-01-24 08:42:00,52.8,37.1,30.29,West,265,0.0,0.0,55,0.00,CLR,SCT,0.00,WeatherDisplay:10.37,2013-01-24 15:42:00,
2013-01-24 08:47:00,53.1,37.3,30.29,West,265,0.0,0.0,55,0.00,CLR,SCT,0.00,WeatherDisplay:10.37,2013-01-24 15:47:00,
2013-01-24 08:52:00,53.4,37.6,30.29,West,265,0.0,0.0,55,0.00,CLR,SCT,0.00,WeatherDisplay:10.37,2013-01-24 15:52:00,
2013-01-24 08:57:00,53.7,37.4,30.29,West,265,0.0,0.0,54,0.00,CLR,SCT,0.00,WeatherDisplay:10.37,2013-01-24 15:57:00,
2013-01-24 09:02:00,54.1,36.9,30.30,West,265,0.0,0.0,52,0.00,CLR,SCT,0.00,WeatherDisplay:10.37,2013-01-24 16:02:00,
2013-01-24 09:07:00,54.6,36.8,30.30,West,265,0.0,0.0,51,0.00,CLR,SCT,0.00,WeatherDisplay:10.37,2013-01-24 16:07:00,
2013-01-24 09:12:00,54.9,36.6,30.30,ENE,62,0.0,1.2,50,0.00,CLR,SCT,0.00,WeatherDisplay:10.37,2013-01-24 16:12:00,
2013-01-24 09:17:00,55.1,35.7,30.30,ENE,62,0.0,0.0,48,0.00,CLR,SCT,0.00,WeatherDisplay:10.37,2013-01-24 16:17:00,
2013-01-24 09:22:00,55.4,36.0,30.30,ENE,62,0.0,0.0,48,0.00,CLR,SCT,0.00,WeatherDisplay:10.37,2013-01-24 16:22:00,
2013-01-24 09:27:00,55.8,36.4,30.30,ENE,62,0.0,0.0,48,0.00,CLR,SCT,0.00,WeatherDisplay:10.37,2013-01-24 16:27:00,
2013-01-24 09:32:00,56.1,36.1,30.30,ENE,62,0.0,0.0,47,0.00,CLR,SCT,0.00,WeatherDisplay:10.37,2013-01-24 16:32:00,
2013-01-24 09:37:00,56.5,36.5,30.30,ENE,62,0.0,0.0,47,0.00,CLR,SCT,0.00,WeatherDisplay:10.37,2013-01-24 16:37:00,
2013-01-24 09:42:00,56.9,36.3,30.31,ENE,62,0.0,0.0,46,0.00,CLR,SCT,0.00,WeatherDisplay:10.37,2013-01-24 16:42:00,
2013-01-24 09:47:00,57.2,36.6,30.31,ENE,62,0.0,0.0,46,0.00,CLR,SCT,0.00,WeatherDisplay:10.37,2013-01-24 16:47:00,
2013-01-24 09:52:00,57.3,36.7,30.31,ENE,62,0.0,0.0,46,0.00,CLR,SCT,0.00,WeatherDisplay:10.37,2013-01-24 16:52:00,
2013-01-24 09:57:00,57.2,36.6,30.31,ENE,62,0.0,0.0,46,0.00,CLR,SCT,0.00,WeatherDisplay:10.37,2013-01-24 16:57:00,
2013-01-24 10:02:00,57.2,36.6,30.31,ENE,62,0.0,0.0,46,0.00,CLR,SCT,0.00,WeatherDisplay:10.37,2013-01-24 17:02:00,
2013-01-24 10:07:00,57.2,36.0,30.31,ENE,62,0.0,0.0,45,0.00,CLR,SCT,0.00,WeatherDisplay:10.37,2013-01-24 17:07:00,
2013-01-24 10:12:00,57.3,36.7,30.31,ENE,62,0.0,0.0,46,0.00,CLR,SCT,0.00,WeatherDisplay:10.37,2013-01-24 17:12:00,
2013-01-24 10:17:00,57.5,36.9,30.31,ENE,62,0.0,0.0,46,0.00,CLR,SCT,0.00,WeatherDisplay:10.37,2013-01-24 17:17:00,
2013-01-24 10:22:00,57.7,37.0,30.31,ENE,62,0.0,0.0,46,0.00,CLR,SCT,0.00,WeatherDisplay:10.37,2013-01-24 17:22:00,
2013-01-24 10:27:00,58.0,36.8,30.31,ENE,62,0.0,0.0,45,0.00,CLR,SCT,0.00,WeatherDisplay:10.37,2013-01-24 17:27:00,
2013-01-24 10:32:00,58.2,36.9,30.31,ENE,62,0.0,0.0,45,0.00,CLR,SCT,0.00,WeatherDisplay:10.37,2013-01-24 17:32:00,
2013-01-24 10:37:00,58.6,36.7,30.31,ENE,62,0.0,0.0,44,0.00,CLR,SCT,0.00,WeatherDisplay:10.37,2013-01-24 17:37:00,
2013-01-24 10:42:00,58.8,36.9,30.31,ENE,62,0.0,0.0,44,0.00,CLR,SCT,0.00,WeatherDisplay:10.37,2013-01-24 17:42:00,
2013-01-24 10:47:00,59.1,37.2,30.32,ENE,62,0.0,0.0,44,0.00,CLR,SCT,0.00,WeatherDisplay:10.37,2013-01-24 17:47:00,
2013-01-24 10:52:00,59.5,37.0,30.31,ENE,62,0.0,0.0,43,0.00,CLR,SCT,0.00,WeatherDisplay:10.37,2013-01-24 17:52:00,
2013-01-24 10:57:00,59.8,37.2,30.32,ENE,62,0.0,0.0,43,0.00,CLR,SCT,0.00,WeatherDisplay:10.37,2013-01-24 17:57:00,
2013-01-24 11:02:00,60.0,37.4,30.32,ENE,62,0.0,0.0,43,0.00,CLR,SCT,0.00,WeatherDisplay:10.37,2013-01-24 18:02:00,
2013-01-24 11:07:00,60.4,37.2,30.31,ENE,62,0.0,0.0,42,0.00,CLR,SCT,0.00,WeatherDisplay:10.37,2013-01-24 18:07:00,
2013-01-24 11:12:00,60.9,37.0,30.31,ENE,62,0.0,0.0,41,0.00,CLR,SCT,0.00,WeatherDisplay:10.37,2013-01-24 18:12:00,
2013-01-24 11:17:00,61.3,36.8,30.31,ENE,62,0.0,1.2,40,0.00,CLR,SCT,0.00,WeatherDisplay:10.37,2013-01-24 18:17:00,
2013-01-24 11:22:00,61.7,36.5,30.31,ENE,62,0.0,0.0,39,0.00,CLR,SCT,0.00,WeatherDisplay:10.37,2013-01-24 18:22:00,
2013-01-24 11:27:00,62.0,36.7,30.31,ENE,62,0.0,0.0,39,0.00,CLR,SCT,0.00,WeatherDisplay:10.37,2013-01-24 18:27:00,
2013-01-24 11:32:00,62.1,36.2,30.31,West,273,0.0,0.0,38,0.00,CLR,SCT,0.00,WeatherDisplay:10.37,2013-01-24 18:32:00,
2013-01-24 11:37:00,62.1,36.2,30.31,West,273,0.0,1.2,38,0.00,CLR,SCT,0.00,WeatherDisplay:10.37,2013-01-24 18:37:00,
2013-01-24 11:42:00,62.3,36.4,30.30,NW,310,0.1,1.2,38,0.00,CLR,SCT,0.00,WeatherDisplay:10.37,2013-01-24 18:42:00,
2013-01-24 11:47:00,62.5,35.9,30.30,NW,315,0.6,3.5,37,0.00,CLR,SCT,0.00,WeatherDisplay:10.37,2013-01-24 18:47:00,
2013-01-24 11:52:00,62.6,36.6,30.30,NW,315,0.0,1.2,38,0.00,CLR,SCT,0.00,WeatherDisplay:10.37,2013-01-24 18:52:00,
2013-01-24 11:57:00,62.8,36.1,30.29,NNW,335,0.3,1.2,37,0.00,CLR,SCT,0.00,WeatherDisplay:10.37,2013-01-24 18:57:00,
2013-01-24 12:02:00,62.9,36.2,30.29,North,351,0.6,3.0,37,0.00,CLR,SCT,0.00,WeatherDisplay:10.37,2013-01-24 19:02:00,
2013-01-24 12:07:00,63.3,36.6,30.29,NNW,338,0.1,2.3,37,0.00,CLR,SCT,0.00,WeatherDisplay:10.37,2013-01-24 19:07:00,
2013-01-24 12:12:00,63.9,36.4,30.28,NNW,331,0.1,1.2,36,0.00,CLR,SCT,0.00,WeatherDisplay:10.37,2013-01-24 19:12:00,
2013-01-24 12:17:00,64.8,36.5,30.28,ENE,57,1.1,3.5,35,0.00,CLR,SCT,0.00,WeatherDisplay:10.37,2013-01-24 19:17:00,
2013-01-24 12:22:00,65.4,36.3,30.28,North,2,1.3,3.5,34,0.00,CLR,SCT,0.00,WeatherDisplay:10.37,2013-01-24 19:22:00,
2013-01-24 12:27:00,65.6,36.5,30.28,NNW,333,0.2,3.5,34,0.00,CLR,SCT,0.00,WeatherDisplay:10.37,2013-01-24 19:27:00,
2013-01-24 12:32:00,65.9,36.7,30.28,North,7,0.3,1.2,34,0.00,CLR,SCT,0.00,WeatherDisplay:10.37,2013-01-24 19:32:00,
2013-01-24 12:37:00,66.4,37.2,30.28,NNE,13,0.3,1.2,34,0.00,CLR,SCT,0.00,WeatherDisplay:10.37,2013-01-24 19:37:00,
2013-01-24 12:42:00,67.2,37.1,30.27,NE,48,0.2,1.2,33,0.00,CLR,SCT,0.00,WeatherDisplay:10.37,2013-01-24 19:42:00,
2013-01-24 12:47:00,68.0,35.4,30.27,NNW,344,1.0,3.5,30,0.00,CLR,SCT,0.00,WeatherDisplay:10.37,2013-01-24 19:47:00,
2013-01-24 12:52:00,68.1,35.5,30.26,NE,51,0.1,1.2,30,0.00,CLR,SCT,0.00,WeatherDisplay:10.37,2013-01-24 19:52:00,
2013-01-24 12:57:00,68.0,34.5,30.26,NE,47,0.5,2.3,29,0.00,CLR,SCT,0.00,WeatherDisplay:10.37,2013-01-24 19:57:00,
2013-01-24 13:02:00,67.7,34.3,30.26,NW,314,0.7,3.5,29,0.00,CLR,SCT,0.00,WeatherDisplay:10.37,2013-01-24 20:02:00,
2013-01-24 13:07:00,67.6,34.2,30.26,ENE,74,1.0,3.5,29,0.00,CLR,SCT,0.00,WeatherDisplay:10.37,2013-01-24 20:07:00,
2013-01-24 13:12:00,67.5,34.1,30.25,NE,54,0.0,0.0,29,0.00,CLR,SCT,0.00,WeatherDisplay:10.37,2013-01-24 20:12:00,
2013-01-24 13:17:00,67.5,34.1,30.25,ENE,76,0.6,3.5,29,0.00,CLR,SCT,0.00,WeatherDisplay:10.37,2013-01-24 20:17:00,
2013-01-24 13:22:00,67.5,35.0,30.25,NNE,28,0.1,1.2,30,0.00,CLR,SCT,0.00,WeatherDisplay:10.37,2013-01-24 20:22:00,
2013-01-24 13:27:00,67.5,35.0,30.24,NNE,28,0.0,1.2,30,0.00,CLR,SCT,0.00,WeatherDisplay:10.37,2013-01-24 20:27:00,
2013-01-24 13:32:00,67.5,35.0,30.24,North,357,0.0,0.0,30,0.00,CLR,SCT,0.00,WeatherDisplay:10.37,2013-01-24 20:32:00,
2013-01-24 13:37:00,67.7,35.1,30.24,North,350,0.1,1.2,30,0.00,CLR,SCT,0.00,WeatherDisplay:10.37,2013-01-24 20:37:00,
2013-01-24 13:42:00,67.4,34.9,30.24,ENE,69,0.1,1.2,30,0.00,CLR,SCT,0.00,WeatherDisplay:10.37,2013-01-24 20:42:00,
2013-01-24 13:47:00,67.0,34.5,30.23,ENE,69,0.0,0.0,30,0.00,CLR,SCT,0.00,WeatherDisplay:10.37,2013-01-24 20:47:00,
2013-01-24 13:52:00,66.8,35.2,30.24,ENE,71,0.1,1.2,31,0.00,CLR,SCT,0.00,WeatherDisplay:10.37,2013-01-24 20:52:00,
2013-01-24 13:57:00,66.5,35.7,30.24,ENE,71,0.0,0.0,32,0.00,CLR,SCT,0.00,WeatherDisplay:10.37,2013-01-24 20:57:00,
2013-01-24 14:02:00,66.5,34.9,30.24,ENE,69,0.9,2.3,31,0.00,CLR,SCT,0.00,WeatherDisplay:10.37,2013-01-24 21:02:00,
2013-01-24 14:07:00,66.5,35.7,30.24,NW,306,1.8,3.5,32,0.00,CLR,SCT,0.00,WeatherDisplay:10.37,2013-01-24 21:07:00,
2013-01-24 14:12:00,66.3,36.3,30.23,North,349,0.3,1.2,33,0.00,CLR,SCT,0.00,WeatherDisplay:10.37,2013-01-24 21:12:00,
2013-01-24 14:17:00,66.1,35.4,30.23,NNW,334,0.4,2.3,32,0.00,CLR,SCT,0.00,WeatherDisplay:10.37,2013-01-24 21:17:00,
2013-01-24 14:22:00,66.0,36.1,30.23,North,350,0.0,0.0,33,0.00,CLR,SCT,0.00,WeatherDisplay:10.37,2013-01-24 21:22:00,
2013-01-24 14:27:00,65.7,35.8,30.23,North,350,0.1,1.2,33,0.00,CLR,SCT,0.00,WeatherDisplay:10.37,2013-01-24 21:27:00,
2013-01-24 14:32:00,65.6,35.7,30.23,North,350,0.2,1.2,33,0.00,CLR,SCT,0.00,WeatherDisplay:10.37,2013-01-24 21:32:00,
2013-01-24 14:37:00,65.4,36.3,30.23,North,350,0.0,1.2,34,0.00,CLR,SCT,0.00,WeatherDisplay:10.37,2013-01-24 21:37:00,
2013-01-24 14:42:00,65.6,35.7,30.23,North,350,0.0,0.0,33,0.00,CLR,SCT,0.00,WeatherDisplay:10.37,2013-01-24 21:42:00,
2013-01-24 14:47:00,65.7,36.5,30.23,North,350,0.0,0.0,34,0.00,CLR,SCT,0.00,WeatherDisplay:10.37,2013-01-24 21:47:00,
2013-01-24 14:52:00,65.9,36.7,30.23,North,357,0.4,2.3,34,0.00,CLR,SCT,0.00,WeatherDisplay:10.37,2013-01-24 21:52:00,
2013-01-24 14:57:00,66.1,37.6,30.22,North,2,2.1,4.6,35,0.00,CLR,SCT,0.00,WeatherDisplay:10.37,2013-01-24 21:57:00,
2013-01-24 15:02:00,65.9,37.5,30.23,NNE,27,0.9,3.5,35,0.00,CLR,SCT,0.00,WeatherDisplay:10.37,2013-01-24 22:02:00,
2013-01-24 15:07:00,65.8,37.4,30.23,NNW,330,0.9,3.5,35,0.00,CLR,SCT,0.00,WeatherDisplay:10.37,2013-01-24 22:07:00,
2013-01-24 15:12:00,65.4,37.7,30.23,NNW,342,1.1,3.5,36,0.00,CLR,SCT,0.00,WeatherDisplay:10.37,2013-01-24 22:12:00,
2013-01-24 15:17:00,65.2,37.6,30.23,North,351,0.4,2.3,36,0.00,CLR,SCT,0.00,WeatherDisplay:10.37,2013-01-24 22:17:00,
2013-01-24 15:22:00,65.0,37.4,30.23,NNW,346,0.1,1.2,36,0.00,CLR,SCT,0.00,WeatherDisplay:10.37,2013-01-24 22:22:00,
2013-01-24 15:27:00,64.9,37.3,30.23,NNW,342,2.2,3.5,36,0.00,CLR,SCT,0.00,WeatherDisplay:10.37,2013-01-24 22:27:00,
2013-01-24 15:32:00,64.6,37.7,30.23,NNW,342,0.0,0.0,37,0.00,CLR,SCT,0.00,WeatherDisplay:10.37,2013-01-24 22:32:00,
2013-01-24 15:37:00,64.5,37.6,30.23,NNW,342,0.2,1.2,37,0.00,CLR,SCT,0.00,WeatherDisplay:10.37,2013-01-24 22:37:00,
2013-01-24 15:42:00,64.5,37.6,30.23,NNW,342,0.0,0.0,37,0.00,CLR,SCT,0.00,WeatherDisplay:10.37,2013-01-24 22:42:00,
2013-01-24 15:47:00,64.7,37.8,30.23,NNW,342,0.0,0.0,37,0.00,CLR,SCT,0.00,WeatherDisplay:10.37,2013-01-24 22:47:00,
2013-01-24 15:52:00,64.8,37.9,30.23,NNW,335,0.0,0.0,37,0.00,CLR,SCT,0.00,WeatherDisplay:10.37,2013-01-24 22:52:00,
2013-01-24 15:57:00,65.0,38.1,30.23,North,349,0.4,2.3,37,0.00,CLR,SCT,0.00,WeatherDisplay:10.37,2013-01-24 22:57:00,
2013-01-24 16:02:00,65.6,37.9,30.23,North,357,0.0,0.0,36,0.00,CLR,SCT,0.00,WeatherDisplay:10.37,2013-01-24 23:02:00,
2013-01-24 16:07:00,65.6,37.9,30.24,NNE,16,0.9,2.3,36,0.00,CLR,SCT,0.00,WeatherDisplay:10.37,2013-01-24 23:07:00,
2013-01-24 16:12:00,65.4,37.7,30.24,NE,43,1.1,3.5,36,0.00,CLR,SCT,0.00,WeatherDisplay:10.37,2013-01-24 23:12:00,
2013-01-24 16:17:00,65.3,37.6,30.24,NNW,346,0.5,2.3,36,0.00,CLR,SCT,0.00,WeatherDisplay:10.37,2013-01-24 23:17:00,
2013-01-24 16:22:00,65.2,37.6,30.24,NNW,331,0.0,0.0,36,0.00,CLR,SCT,0.00,WeatherDisplay:10.37,2013-01-24 23:22:00,
2013-01-24 16:27:00,65.0,37.4,30.24,NNW,343,0.1,2.3,36,0.00,CLR,SCT,0.00,WeatherDisplay:10.37,2013-01-24 23:27:00,
2013-01-24 16:32:00,64.9,37.3,30.24,NW,325,1.6,3.5,36,0.00,CLR,SCT,0.00,WeatherDisplay:10.37,2013-01-24 23:32:00,
2013-01-24 16:37:00,64.6,37.7,30.24,North,357,0.2,3.5,37,0.00,CLR,SCT,0.00,WeatherDisplay:10.37,2013-01-24 23:37:00,
2013-01-24 16:42:00,64.5,37.6,30.25,NNW,343,0.0,1.2,37,0.00,CLR,SCT,0.00,WeatherDisplay:10.37,2013-01-24 23:42:00,
2013-01-24 16:47:00,64.4,37.5,30.24,NNE,18,0.9,1.0,37,0.00,CLR,SCT,0.00,WeatherDisplay:10.37,2013-01-24 23:47:00,
2013-01-24 16:52:00,63.7,37.6,30.25,NW,317,0.3,3.5,38,0.00,CLR,SCT,0.00,WeatherDisplay:10.37,2013-01-24 23:52:00,
2013-01-24 16:57:00,63.1,37.7,30.25,NNW,341,0.9,4.6,39,0.00,CLR,SCT,0.00,WeatherDisplay:10.37,2013-01-24 23:57:00,
2013-01-24 17:02:00,62.5,37.8,30.25,North,357,0.1,3.5,40,0.00,CLR,SCT,0.00,WeatherDisplay:10.37,2013-01-25 00:02:00,
2013-01-24 17:07:00,62.1,38.1,30.25,North,2,0.5,3.5,41,0.00,CLR,SCT,0.00,WeatherDisplay:10.37,2013-01-25 00:07:00,
2013-01-24 17:12:00,61.7,38.4,30.25,NNW,348,0.9,3.5,42,0.00,CLR,SCT,0.00,WeatherDisplay:10.37,2013-01-25 00:12:00,
2013-01-24 17:17:00,61.4,38.1,30.25,NNE,20,0.1,0.0,42,0.00,CLR,SCT,0.00,WeatherDisplay:10.37,2013-01-25 00:17:00,
2013-01-24 17:22:00,61.2,38.5,30.25,NNW,344,0.3,3.0,43,0.00,CLR,SCT,0.00,WeatherDisplay:10.37,2013-01-25 00:22:00,
2013-01-24 17:27:00,60.9,38.2,30.25,NNW,327,0.1,2.3,43,0.00,CLR,SCT,0.00,WeatherDisplay:10.37,2013-01-25 00:27:00,
2013-01-24 17:32:00,60.7,38.1,30.26,NNW,346,0.7,2.3,43,0.00,CLR,SCT,0.00,WeatherDisplay:10.37,2013-01-25 00:32:00,
2013-01-24 17:37:00,60.5,38.5,30.26,North,349,0.0,0.0,44,0.00,CLR,SCT,0.00,WeatherDisplay:10.37,2013-01-25 00:37:00,
2013-01-24 17:42:00,60.3,38.3,30.26,North,349,0.0,1.2,44,0.00,CLR,SCT,0.00,WeatherDisplay:10.37,2013-01-25 00:42:00,
2013-01-24 17:47:00,60.0,38.0,30.26,NNW,334,0.8,2.3,44,0.00,CLR,SCT,0.00,WeatherDisplay:10.37,2013-01-25 00:47:00,
2013-01-24 17:52:00,59.8,38.4,30.26,NW,315,0.2,2.3,45,0.00,CLR,SCT,0.00,WeatherDisplay:10.37,2013-01-25 00:52:00,
2013-01-24 17:57:00,59.5,38.7,30.26,NW,315,0.1,0.0,46,0.00,CLR,SCT,0.00,WeatherDisplay:10.37,2013-01-25 00:57:00,
2013-01-24 18:02:00,59.1,38.9,30.26,WNW,298,0.3,2.3,47,0.00,CLR,SCT,0.00,WeatherDisplay:10.37,2013-01-25 01:02:00,
2013-01-24 18:07:00,58.7,39.0,30.27,WNW,292,0.0,2.3,48,0.00,CLR,SCT,0.00,WeatherDisplay:10.37,2013-01-25 01:07:00,
2013-01-24 18:12:00,58.4,39.3,30.27,WNW,289,0.1,1.2,49,0.00,CLR,SCT,0.00,WeatherDisplay:10.37,2013-01-25 01:12:00,
2013-01-24 18:17:00,58.1,39.0,30.27,WNW,289,0.0,0.0,49,0.00,CLR,SCT,0.00,WeatherDisplay:10.37,2013-01-25 01:17:00,
2013-01-24 18:22:00,57.9,38.8,30.27,WNW,290,0.0,0.0,49,0.00,CLR,SCT,0.00,WeatherDisplay:10.37,2013-01-25 01:22:00,
2013-01-24 18:27:00,57.8,39.3,30.27,NW,323,0.1,0.0,50,0.00,CLR,SCT,0.00,WeatherDisplay:10.37,2013-01-25 01:27:00,
2013-01-24 18:32:00,57.6,39.1,30.28,NW,323,0.0,0.0,50,0.00,CLR,SCT,0.00,WeatherDisplay:10.37,2013-01-25 01:32:00,
2013-01-24 18:37:00,57.6,39.1,30.28,NW,323,0.1,1.2,50,0.00,CLR,SCT,0.00,WeatherDisplay:10.37,2013-01-25 01:37:00,
2013-01-24 18:42:00,57.6,39.1,30.28,NW,323,0.0,0.0,50,0.00,CLR,SCT,0.00,WeatherDisplay:10.37,2013-01-25 01:42:00,
2013-01-24 18:47:00,57.5,39.0,30.28,NW,323,0.0,0.0,50,0.00,CLR,SCT,0.00,WeatherDisplay:10.37,2013-01-25 01:47:00,
2013-01-24 18:52:00,57.4,39.4,30.28,NW,323,0.0,0.0,51,0.00,CLR,SCT,0.00,WeatherDisplay:10.37,2013-01-25 01:52:00,
2013-01-24 18:57:00,57.3,39.3,30.28,NW,323,0.0,0.0,51,0.00,CLR,SCT,0.00,WeatherDisplay:10.37,2013-01-25 01:57:00,
2013-01-24 19:02:00,57.1,39.1,30.28,NW,323,0.0,0.0,51,0.00,CLR,SCT,0.00,WeatherDisplay:10.37,2013-01-25 02:02:00,
2013-01-24 19:07:00,57.0,39.0,30.28,NW,323,0.0,0.0,51,0.00,CLR,SCT,0.00,WeatherDisplay:10.37,2013-01-25 02:07:00,
2013-01-24 19:12:00,56.8,39.4,30.28,NW,323,0.0,0.0,52,0.00,CLR,SCT,0.00,WeatherDisplay:10.37,2013-01-25 02:12:00,
2013-01-24 19:17:00,56.5,39.6,30.27,NW,323,0.0,0.0,53,0.00,CLR,SCT,0.00,WeatherDisplay:10.37,2013-01-25 02:17:00,
2013-01-24 19:22:00,56.3,39.4,30.28,NW,323,0.0,0.0,53,0.00,CLR,SCT,0.00,WeatherDisplay:10.37,2013-01-25 02:22:00,
2013-01-24 19:27:00,56.3,39.9,30.28,West,270,0.0,0.0,54,0.00,CLR,SCT,0.00,WeatherDisplay:10.37,2013-01-25 02:27:00,
2013-01-24 19:33:00,56.2,39.8,30.28,West,270,0.1,1.2,54,0.00,CLR,SCT,0.00,WeatherDisplay:10.37,2013-01-25 02:33:00,
2013-01-24 19:38:00,56.0,40.1,30.28,West,270,0.0,0.0,55,0.00,CLR,SCT,0.00,WeatherDisplay:10.37,2013-01-25 02:38:00,
2013-01-24 19:43:00,55.9,40.0,30.28,West,270,0.0,0.0,55,0.00,CLR,SCT,0.00,WeatherDisplay:10.37,2013-01-25 02:43:00,
2013-01-24 19:48:00,55.6,39.7,30.28,West,270,0.0,1.2,55,0.00,CLR,SCT,0.00,WeatherDisplay:10.37,2013-01-25 02:48:00,
2013-01-24 19:53:00,55.5,39.6,30.28,West,270,0.0,0.0,55,0.00,CLR,SCT,0.00,WeatherDisplay:10.37,2013-01-25 02:53:00,
2013-01-24 19:58:00,55.4,39.5,30.29,West,270,0.0,0.0,55,0.00,CLR,SCT,0.00,WeatherDisplay:10.37,2013-01-25 02:58:00,
2013-01-24 20:03:00,55.3,39.4,30.29,West,270,0.0,0.0,55,0.00,CLR,SCT,0.00,WeatherDisplay:10.37,2013-01-25 03:03:00,
2013-01-24 20:08:00,55.1,39.7,30.28,West,270,0.0,0.0,56,0.00,CLR,SCT,0.00,WeatherDisplay:10.37,2013-01-25 03:08:00,
2013-01-24 20:13:00,55.0,39.6,30.29,West,270,0.0,0.0,56,0.00,CLR,SCT,0.00,WeatherDisplay:10.37,2013-01-25 03:13:00,
2013-01-24 20:18:00,54.9,39.9,30.29,West,270,0.0,0.0,57,0.00,CLR,SCT,0.00,WeatherDisplay:10.37,2013-01-25 03:18:00,
2013-01-24 20:23:00,54.8,39.8,30.29,West,270,0.0,0.0,57,0.00,CLR,SCT,0.00,WeatherDisplay:10.37,2013-01-25 03:23:00,
2013-01-24 20:28:00,54.8,40.3,30.29,West,271,0.1,2.0,58,0.00,CLR,SCT,0.00,WeatherDisplay:10.37,2013-01-25 03:28:00,
2013-01-24 20:33:00,55.1,40.1,30.30,West,264,0.8,3.5,57,0.00,CLR,SCT,0.00,WeatherDisplay:10.37,2013-01-25 03:33:00,
2013-01-24 20:38:00,55.3,40.3,30.29,West,273,0.0,0.0,57,0.00,CLR,SCT,0.00,WeatherDisplay:10.37,2013-01-25 03:38:00,
2013-01-24 20:43:00,55.3,40.3,30.29,West,273,0.0,0.0,57,0.00,CLR,SCT,0.00,WeatherDisplay:10.37,2013-01-25 03:43:00,
2013-01-24 20:49:00,55.3,40.3,30.28,West,273,0.0,0.0,57,0.00,CLR,SCT,0.00,WeatherDisplay:10.37,2013-01-25 03:49:00,
2013-01-24 20:54:00,55.3,40.3,30.28,West,273,0.0,0.0,57,0.00,CLR,SCT,0.00,WeatherDisplay:10.37,2013-01-25 03:54:00,
2013-01-24 20:59:00,55.2,40.2,30.28,West,273,0.0,0.0,57,0.00,CLR,SCT,0.00,WeatherDisplay:10.37,2013-01-25 03:59:00,
2013-01-24 21:04:00,55.1,40.1,30.28,West,273,0.0,0.0,57,0.00,CLR,SCT,0.00,WeatherDisplay:10.37,2013-01-25 04:04:00,
2013-01-24 21:09:00,55.0,40.5,30.28,West,273,0.0,0.0,58,0.00,CLR,SCT,0.00,WeatherDisplay:10.37,2013-01-25 04:09:00,
2013-01-24 21:14:00,54.9,40.4,30.28,West,273,0.0,0.0,58,0.00,CLR,SCT,0.00,WeatherDisplay:10.37,2013-01-25 04:14:00,
2013-01-24 21:19:00,54.8,40.3,30.28,West,273,0.0,0.0,58,0.00,CLR,SCT,0.00,WeatherDisplay:10.37,2013-01-25 04:19:00,
2013-01-24 21:24:00,54.7,40.2,30.29,West,273,0.0,0.0,58,0.00,CLR,SCT,0.00,WeatherDisplay:10.37,2013-01-25 04:24:00,
2013-01-24 21:29:00,54.8,40.3,30.28,West,273,0.0,0.0,58,0.00,CLR,SCT,0.00,WeatherDisplay:10.37,2013-01-25 04:29:00,
2013-01-24 21:34:00,54.8,40.3,30.29,West,273,0.0,0.0,58,0.00,CLR,SCT,0.00,WeatherDisplay:10.37,2013-01-25 04:34:00,
2013-01-24 21:39:00,54.8,40.3,30.28,West,273,0.0,0.0,58,0.00,CLR,SCT,0.00,WeatherDisplay:10.37,2013-01-25 04:39:00,
2013-01-24 21:44:00,54.8,40.3,30.29,West,273,0.1,1.2,58,0.00,CLR,SCT,0.00,WeatherDisplay:10.37,2013-01-25 04:44:00,
2013-01-24 21:49:00,54.8,40.3,30.29,West,273,0.0,0.0,58,0.00,CLR,SCT,0.00,WeatherDisplay:10.37,2013-01-25 04:49:00,
2013-01-24 21:54:00,54.8,40.3,30.30,West,273,0.3,2.3,58,0.00,CLR,SCT,0.00,WeatherDisplay:10.37,2013-01-25 04:54:00,
2013-01-24 21:59:00,54.9,40.4,30.30,West,273,0.1,1.2,58,0.00,CLR,SCT,0.00,WeatherDisplay:10.37,2013-01-25 04:59:00,
2013-01-24 22:00:00,55.0,40.5,30.30,West,273,0.3,2.3,58,0.00,CLR,SCT,0.00,WeatherDisplay:10.37,2013-01-25 05:00:00,
2013-01-24 22:02:00,55.0,40.5,30.30,West,273,0.0,0.0,58,0.00,CLR,SCT,0.00,WeatherDisplay:10.37,2013-01-25 05:02:00,
2013-01-24 22:03:00,55.0,40.5,30.30,West,273,0.0,0.0,58,0.00,CLR,SCT,0.00,WeatherDisplay:10.37,2013-01-25 05:03:00,
2013-01-24 22:08:00,55.2,40.7,30.30,West,274,0.0,1.2,58,0.00,CLR,SCT,0.00,WeatherDisplay:10.37,2013-01-25 05:08:00,
2013-01-24 22:13:00,55.3,40.8,30.29,West,274,0.0,0.0,58,0.00,CLR,SCT,0.00,WeatherDisplay:10.37,2013-01-25 05:13:00,
2013-01-24 22:18:00,55.3,40.8,30.29,West,274,0.0,0.0,58,0.00,CLR,SCT,0.00,WeatherDisplay:10.37,2013-01-25 05:18:00,
2013-01-24 22:23:00,55.1,41.0,30.30,West,274,0.5,2.0,59,0.00,CLR,SCT,0.00,WeatherDisplay:10.37,2013-01-25 05:23:00,
2013-01-24 22:28:00,55.2,41.1,30.29,West,274,0.0,0.0,59,0.00,CLR,SCT,0.00,WeatherDisplay:10.37,2013-01-25 05:28:00,
2013-01-24 22:33:00,55.3,41.2,30.29,West,274,0.0,0.0,59,0.00,CLR,SCT,0.00,WeatherDisplay:10.37,2013-01-25 05:33:00,
2013-01-24 22:38:00,55.3,41.2,30.29,West,274,0.0,0.0,59,0.00,CLR,SCT,0.00,WeatherDisplay:10.37,2013-01-25 05:38:00,
2013-01-24 22:43:00,55.3,41.2,30.29,West,274,0.0,0.0,59,0.00,CLR,SCT,0.00,WeatherDisplay:10.37,2013-01-25 05:43:00,
2013-01-24 22:48:00,55.2,41.1,30.29,West,274,0.0,0.0,59,0.00,CLR,SCT,0.00,WeatherDisplay:10.37,2013-01-25 05:48:00,
2013-01-24 22:53:00,55.1,41.0,30.29,West,274,0.0,0.0,59,0.00,CLR,SCT,0.00,WeatherDisplay:10.37,2013-01-25 05:53:00,
2013-01-24 22:58:00,55.2,41.1,30.29,West,275,0.2,1.0,59,0.00,CLR,SCT,0.00,WeatherDisplay:10.37,2013-01-25 05:58:00,
2013-01-24 23:03:00,55.2,41.1,30.30,West,273,2.7,3.5,59,0.00,CLR,SCT,0.00,WeatherDisplay:10.37,2013-01-25 06:03:00,
2013-01-24 23:08:00,55.4,41.3,30.30,West,277,1.8,3.5,59,0.00,CLR,SCT,0.00,WeatherDisplay:10.37,2013-01-25 06:08:00,
2013-01-24 23:13:00,55.3,41.2,30.30,WNW,289,1.3,1.3,59,0.00,CLR,SCT,0.00,WeatherDisplay:10.37,2013-01-25 06:13:00,
2013-01-24 23:18:00,55.4,41.3,30.30,West,265,0.4,1.2,59,0.00,CLR,SCT,0.00,WeatherDisplay:10.37,2013-01-25 06:18:00,
2013-01-24 23:23:00,55.4,41.3,30.30,WNW,282,1.7,2.3,59,0.00,CLR,SCT,0.00,WeatherDisplay:10.37,2013-01-25 06:23:00,
2013-01-24 23:28:00,55.2,41.1,30.30,WNW,283,1.0,1.2,59,0.00,CLR,SCT,0.00,WeatherDisplay:10.37,2013-01-25 06:28:00,
2013-01-24 23:33:00,55.1,41.5,30.30,WNW,283,0.0,0.0,60,0.00,CLR,SCT,0.00,WeatherDisplay:10.37,2013-01-25 06:33:00,
2013-01-24 23:38:00,54.8,41.2,30.30,West,273,1.4,2.0,60,0.00,CLR,SCT,0.00,WeatherDisplay:10.37,2013-01-25 06:38:00,
2013-01-24 23:43:00,54.5,41.3,30.30,WSW,255,0.5,2.3,61,0.00,CLR,SCT,0.00,WeatherDisplay:10.37,2013-01-25 06:43:00,
2013-01-24 23:48:00,54.5,41.7,30.30,WNW,283,1.9,2.3,62,0.00,CLR,SCT,0.00,WeatherDisplay:10.37,2013-01-25 06:48:00,
2013-01-24 23:53:00,54.6,41.4,30.29,WSW,254,1.1,1.2,61,0.00,CLR,SCT,0.00,WeatherDisplay:10.37,2013-01-25 06:53:00,
2013-01-24 23:58:00,54.5,41.7,30.29,West,270,2.1,3.5,62,0.00,CLR,SCT,0.00,WeatherDisplay:10.37,2013-01-25 06:58:00,